2 Line ISS Keps 10-16
15 Oct
2006
15 Oct
'06
10:59 p.m.
ISS 1 25544U 98067A 06288.96394316 .00009710 00000-0 62451-4 0 8678 2 25544 051.6353 285.2224 0013264 100.8545 348.1702 15.76908098452211
6641
Age (days ago)
6641
Last active (days ago)
0 comments
1 participants
participants (1)
-
Dave Larsen PhD